Weather Roundup
Issued by NWS Chicago, IL

Home | Current Version | Previous Version | Text Only | Print | Product List | Glossary Off
Versions: 1 2 3 4 5 6 7 8 9 10 11 12 13 14 15 16 17 18 19 20 21 22 23 24 25 26 27 28 29 30 31 32 33 34 35 36 37 38 39 40 41 42 43 44 45 46 47 48 49 50

000
NZUS59 KLOT 022321
HRRLOT

CHICAGO AREA WEATHER ROUNDUP
NATIONAL WEATHER SERVICE CHICAGO/ROMEOVILLE IL
600 PM CDT THU JUL 02 2015

NOTE: "FAIR" INDICATES FEW OR NO CLOUDS BELOW 12,000 FEET WITH NO
SIGNIFICANT WEATHER AND/OR OBSTRUCTIONS TO VISIBILITY.

* THESE STATIONS ARE NOT UNDER NWS QUALITY CONTROL. THEY ALSO MAY NOT
  REPORT WEATHER SUCH AS PRECIPITATION OR FOG.

ILZ005-006-012>014-019>023-030000-
NORTHEAST ILLINOIS

CITY           SKY/WX    TMP DP  RH WIND       PRES   REMARKS
OHARE          MOSUNNY   65  52  62 NE13      29.98F
MIDWAY         MOSUNNY   69  55  60 N12       29.97F
AURORA         SUNNY     70  53  54 NE9       29.97S
LANSING*       MOSUNNY   65  54  69 N9        29.96F
JOLIET*        SUNNY     70  57  63 NE12      29.96S
WAUKEGAN       SUNNY     61  51  70 N12       30.00F
DUPAGE AIRPORT SUNNY     68  54  60 NE9       29.97S
WHEELING       SUNNY     64  52  64 NE9       30.00F
KANKAKEE*      MOSUNNY   70  60  71 N12       29.94F
MORRIS*        MOSUNNY   71  57  61 NE6       29.94S
LEWIS AIRPORT* SUNNY     69  54  59 NE10      29.96F
NORTHERLY IS     N/A     60  54  80 N14         N/A
$$

WIZ051-052-058>065-066-070>072-030000-
SOUTHEAST WISCONSIN

CITY           SKY/WX    TMP DP  RH WIND       PRES   REMARKS
MILWAUKEE      MOSUNNY   61  48  62 NE13      30.02S
KENOSHA*       SUNNY     66  52  60 N7        30.01S
RACINE*        SUNNY     61  48  62 N13       30.03S
BURLINGTON     SUNNY     65  52  60 E6        30.01S
WAUKESHA       SUNNY     64  48  55 E6        30.02F
WEST BEND      SUNNY     68  46  45 E7        30.02F
$$

INZ001>003-010>013-019-020-030000-
NORTHWEST INDIANA

CITY           SKY/WX    TMP DP  RH WIND       PRES   REMARKS
GARY*          PTSUNNY   64  57  77 N14       29.98S
MICHIGAN CITY* NOT AVBL
RENSSELAER*    NOT AVBL
VALPARAISO     MOSUNNY   69  60  73 N10       29.95F
$$

LMZ740>746-030000-
SOUTHERN LAKE MICHIGAN

STATION/POSITION TIME  SKY/WX   TEMP WIND        PRES    VSBY
                                AIR  DIR/SP/G
                 (UTC)          (F)  (DEG/KT/KT) (MB)    (MI)
HARRISON CRIB    2300            57  350/ 17/ 19   N/A
BURNHAM HARBOR   2300            61  360/ 13/ 16   N/A
CALUMET HARBOR   2300            60  340/ 13/ 17   N/A
BURNS HARBOR     2200            61   10/ 10/ 14 1015.6S
MICHIGAN CITY    2300            62   20/ 18/ 20   N/A
$$

ABBREVIATIONS USED IN REMARKS
   TC - TEMPERATURE IN CELSIUS
  WCI - WIND CHILL INDEX
   HX - HEAT INDEX
  VSB - VISIBILITY
$$



USA.gov is the U.S. government's official web portal to all federal, state and local government web resources and services.